Weather History for KWDG - February, 2013

Change the Weather History Date:

Monday, February 18, 2013

  Actual Average Record
Temperature  
Mean Temperature 44 °F -  
Max Temperature 57 °F 50 °F 77 °F (2014)
Min Temperature 32 °F 33 °F 10 °F (2006)
Degree Days  
Heating Degree Days 20    
Moisture  
Dew Point 32 °F    
Average Humidity 57    
Maximum Humidity 87    
Minimum Humidity 33    
Precipitation  
Precipitation 0.00 in - - ()
Sea Level Pressure  
Sea Level Pressure 29.81 in    
Wind  
Wind Speed 20 mph (West)    
Max Wind Speed 30 mph    
Max Gust Speed 40 mph    
Visibility 10 miles    
Events      
Averages and records for this station are not official NWS values.
T = Trace of Precipitation, MM = Missing Value Source: NWS Daily Summary

Daily Weather History Graph

Daily Weather History Graph

Search for Another Location

Airport or City:

Trip Planner

Search our weather history database for the weather conditions in past years. The results will help you decide how hot, cold, wet, or windy it might be!

Date:

Astronomy

Feb. 18, 2013 Rise Set
Actual Time 7:15 AM CST 6:15 PM CST
Civil Twilight 6:48 AM CST 6:41 PM CST
Nautical Twilight 6:18 AM CST 7:11 PM CST
Astronomical Twilight 5:49 AM CST 7:41 PM CST
Moon 12:07 PM CST (2/18) 1:51 AM CST (2/18)
Length of Visible Light 11h 52m
Length of Day
11h 00m
First Quarter, 58% of the Moon is Illuminated
Feb 18
First Quarter
Feb 25
Full
Mar 4
Last Quarter
Mar 11
New
Mar 19
First Quarter

Hourly Weather History & Observations

Time (CST) Temp. Windchill Dew Point Humidity Pressure Visibility Wind Dir Wind Speed Gust Speed Precip Events Conditions
12:15 AM 53.6 °F - 32.0 °F 44% 29.63 in 10.0 mi South 24.2 mph 31.1 mph N/A   Clear
12:35 AM 53.6 °F - 32.0 °F 44% 29.63 in 10.0 mi South 24.2 mph 28.8 mph N/A   Clear
12:55 AM 53.6 °F - 33.8 °F 47% 29.62 in 10.0 mi South 27.6 mph - N/A   Clear
1:15 AM 53.6 °F - 33.8 °F 47% 29.61 in 10.0 mi South 26.5 mph 31.1 mph N/A   Clear
1:35 AM 53.6 °F - 35.6 °F 51% 29.60 in 10.0 mi South 27.6 mph 33.4 mph N/A   Clear
1:55 AM 53.6 °F - 35.6 °F 51% 29.60 in 10.0 mi South 26.5 mph 32.2 mph N/A   Clear
2:15 AM 53.6 °F - 35.6 °F 51% 29.60 in 10.0 mi South 25.3 mph - N/A   Clear
2:35 AM 51.8 °F - 37.4 °F 58% 29.59 in 10.0 mi South 23.0 mph 27.6 mph N/A   Clear
2:55 AM 51.8 °F - 37.4 °F 58% 29.57 in 10.0 mi South 25.3 mph - N/A   Clear
3:15 AM 51.8 °F - 37.4 °F 58% 29.57 in 10.0 mi South 25.3 mph 32.2 mph N/A   Clear
3:35 AM 51.8 °F - 39.2 °F 62% 29.56 in 10.0 mi South 24.2 mph 33.4 mph N/A   Clear
3:55 AM 51.8 °F - 41.0 °F 67% 29.56 in 10.0 mi South 19.6 mph 28.8 mph N/A   Clear
4:15 AM 51.8 °F - 41.0 °F 67% 29.55 in 10.0 mi South 18.4 mph 27.6 mph N/A   Clear
4:35 AM 50.0 °F - 42.8 °F 76% 29.55 in 10.0 mi South 17.3 mph - N/A   Clear
4:55 AM 50.0 °F - 42.8 °F 76% 29.56 in 10.0 mi South 15.0 mph 20.7 mph N/A   Clear
6:15 AM 48.2 °F - 42.8 °F 82% 29.57 in 10.0 mi South 15.0 mph - N/A   Clear
6:50 AM 48.2 °F - 44.6 °F 87% 29.57 in 10.0 mi SSW 15.0 mph - N/A   Scattered Clouds
7:50 AM 48.2 °F - 37.4 °F 66% 29.62 in 10.0 mi West 16.1 mph 23.0 mph N/A   Scattered Clouds
8:50 AM 46.4 °F 40.1 °F 32.0 °F 57% 29.67 in 10.0 mi NW 15.0 mph 26.5 mph N/A   Scattered Clouds
9:55 AM 50.0 °F - 33.8 °F 54% 29.72 in 10.0 mi NW 25.3 mph 36.8 mph N/A   Partly Cloudy
10:53 AM 51.8 °F - 33.8 °F 50% 29.76 in 10.0 mi NNW 28.8 mph 38.0 mph N/A   Scattered Clouds
11:52 AM 51.8 °F - 30.2 °F 44% 29.81 in 10.0 mi NW 29.9 mph 40.3 mph N/A   Scattered Clouds
1:50 PM 57.2 °F - 30.2 °F 36% 29.85 in 10.0 mi NNW 23.0 mph 34.5 mph N/A   Partly Cloudy
2:50 PM 57.2 °F - 28.4 °F 33% 29.87 in 10.0 mi NNW 25.3 mph 35.7 mph N/A   Partly Cloudy
3:50 PM 55.4 °F - 26.6 °F 33% 29.90 in 10.0 mi NNW 24.2 mph 32.2 mph N/A   Partly Cloudy
4:50 PM 53.6 °F - 24.8 °F 33% 29.94 in 10.0 mi NNW 24.2 mph 32.2 mph N/A   Partly Cloudy
5:50 PM 51.8 °F - 24.8 °F 35% 29.96 in 10.0 mi NNW 20.7 mph 32.2 mph N/A   Clear
7:50 PM 42.8 °F 38.6 °F 24.8 °F 49% 30.05 in 10.0 mi NNW 6.9 mph - N/A   Clear
8:15 PM 41.0 °F 37.1 °F 24.8 °F 53% 30.06 in 10.0 mi NNW 5.8 mph - N/A   Clear
8:35 PM 39.2 °F 33.6 °F 26.6 °F 61% 30.07 in 10.0 mi North 8.1 mph - N/A   Clear
8:55 PM 37.4 °F 32.1 °F 24.8 °F 60% 30.08 in 10.0 mi North 6.9 mph - N/A   Clear
9:15 PM 37.4 °F 31.4 °F 24.8 °F 60% 30.09 in 10.0 mi North 8.1 mph - N/A   Clear
9:35 PM 37.4 °F 32.1 °F 24.8 °F 60% 30.10 in 7.0 mi North 6.9 mph - N/A   Clear
9:55 PM 35.6 °F 29.2 °F 23.0 °F 60% 30.11 in 10.0 mi North 8.1 mph - N/A   Clear
10:15 PM 33.8 °F 26.4 °F 24.8 °F 70% 30.12 in 10.0 mi North 9.2 mph - N/A   Clear
10:35 PM 32.0 °F 26.4 °F 23.0 °F 69% 30.13 in 10.0 mi North 5.8 mph - N/A   Clear
10:55 PM 32.0 °F 23.6 °F 23.0 °F 69% 30.11 in 10.0 mi NNE 10.4 mph - N/A   Clear
11:15 PM 32.0 °F 27.5 °F 23.0 °F 69% 30.12 in 10.0 mi NNE 4.6 mph - N/A   Clear
11:35 PM 32.0 °F - 23.0 °F 69% 30.14 in 10.0 mi Calm Calm - N/A   Clear
11:55 PM 32.0 °F - 23.0 °F 69% 30.14 in 10.0 mi Calm Calm - N/A   Clear